Monroe, LA

12:08 AM CST on December 12, 2017 (GMT -0600)
Monroe Regional

Weather History for KMLU - December, 2013

Change the Weather History Date:

Friday, December 13, 2013

  Actual Average Record
Temperature  
Mean Temperature 41 °F 48 °F  
Max Temperature 55 °F 59 °F 81 °F (1933)
Min Temperature 27 °F 38 °F 8 °F (1962)
Degree Days  
Heating Degree Days 24 17  
Month to date heating degree days 246 203  
Since 1 July heating degree days 726 575  
Cooling Degree Days 0 0  
Month to date cooling degree days 9 0  
Year to date cooling degree days 2442 2508  
Moisture  
Dew Point 37 °F    
Average Humidity 69    
Maximum Humidity 93    
Minimum Humidity 45    
Precipitation  
Precipitation 0.48 in 0.18 in 3.10 in (1931)
Month to date precipitation 1.64 2.27  
Year to date precipitation 48.69 51.00  
Snow  
Snow 0.00 in - - ()
Month to date snowfall T  
Since 1 July snowfall T  
Snow Depth 0.00 in    
Sea Level Pressure  
Sea Level Pressure 30.08 in    
Wind  
Wind Speed 3 mph (SSE)    
Max Wind Speed 15 mph    
Max Gust Speed 22 mph    
Visibility 9 miles    
Events Rain    
T = Trace of Precipitation, MM = Missing Value Source: NWS Daily Summary

Daily Weather History Graph

Daily Weather History Graph

Search for Another Location

Airport or City:

Trip Planner

Search our weather history database for the weather conditions in past years. The results will help you decide how hot, cold, wet, or windy it might be!

Date:

Astronomy

Dec. 13, 2013 Rise Set
Actual Time 7:01 AM CST 5:03 PM CST
Civil Twilight 6:34 AM CST 5:30 PM CST
Nautical Twilight 6:03 AM CST 6:01 PM CST
Astronomical Twilight 5:33 AM CST 6:31 PM CST
Moon 2:39 PM CST (12/13) 3:32 AM CST (12/13)
Length of Visible Light 10h 56m
Length of Day
10h 02m
Waxing Gibbous, 88% of the Moon is Illuminated
Dec 13
Waxing Gibbous
Dec 17
Full
Dec 25
Last Quarter
Jan 1
New
Jan 7
First Quarter

Hourly Weather History & Observations

Time (CST) Temp. Windchill Dew Point Humidity Pressure Visibility Wind Dir Wind Speed Gust Speed Precip Events Conditions
12:53 AM 28.9 °F - 25.0 °F 85% 30.39 in 10.0 mi Calm Calm - N/A   Clear
1:53 AM 30.0 °F - 27.0 °F 88% 30.38 in 10.0 mi Calm Calm - N/A   Clear
2:53 AM 32.0 °F - 27.0 °F 82% 30.37 in 10.0 mi Calm Calm - N/A   Clear
3:53 AM 30.9 °F - 28.0 °F 89% 30.33 in 10.0 mi Calm Calm - N/A   Clear
4:53 AM 34.0 °F - 27.0 °F 75% 30.28 in 10.0 mi Calm Calm - N/A   Clear
5:53 AM 35.1 °F 32.2 °F 27.0 °F 72% 30.28 in 10.0 mi East 3.5 mph - N/A   Clear
6:53 AM 35.1 °F - 28.9 °F 78% 30.31 in 10.0 mi Calm Calm - N/A   Clear
7:53 AM 34.0 °F - 28.9 °F 82% 30.32 in 10.0 mi Calm Calm - N/A   Clear
8:53 AM 39.9 °F 37.8 °F 27.0 °F 60% 30.30 in 10.0 mi SSE 3.5 mph - N/A   Clear
9:53 AM 43.0 °F 41.3 °F 25.0 °F 49% 30.27 in 10.0 mi SE 3.5 mph - N/A   Clear
10:53 AM 45.0 °F 41.2 °F 26.1 °F 48% 30.22 in 10.0 mi South 6.9 mph - N/A   Clear
11:53 AM 46.9 °F - 27.0 °F 46% 30.18 in 10.0 mi South 5.8 mph - N/A   Clear
12:53 PM 48.0 °F - 28.0 °F 46% 30.17 in 10.0 mi SSW 3.5 mph - N/A   Clear
1:53 PM 48.0 °F - 28.0 °F 46% 30.12 in 10.0 mi Calm Calm - N/A   Clear
2:53 PM 48.9 °F - 30.9 °F 50% 30.09 in 10.0 mi Calm Calm - N/A   Mostly Cloudy
3:53 PM 48.0 °F - 34.0 °F 58% 30.05 in 10.0 mi Calm Calm - 0.00 in Rain Light Rain
4:53 PM 46.9 °F - 37.9 °F 71% 30.06 in 10.0 mi Calm Calm - 0.01 in Rain Light Rain
5:00 PM 46.4 °F 45.2 °F 39.2 °F 76% 30.05 in 10.0 mi NNE 3.5 mph - 0.01 in Rain Light Rain
5:49 PM 44.6 °F 41.4 °F 41.0 °F 87% 30.02 in 5.0 mi East 5.8 mph - 0.08 in Rain Rain
5:53 PM 45.0 °F 41.8 °F 41.0 °F 86% 30.01 in 5.0 mi East 5.8 mph - 0.09 in Rain Rain
6:53 PM 45.0 °F 42.6 °F 41.0 °F 86% 29.97 in 9.0 mi East 4.6 mph - 0.05 in Rain Light Rain
7:53 PM 46.0 °F 43.9 °F 42.1 °F 86% 29.93 in 7.0 mi ESE 4.6 mph - 0.09 in Rain Light Rain
8:53 PM 48.0 °F - 45.0 °F 89% 29.91 in 8.0 mi SSE 3.5 mph - 0.05 in Rain Light Rain
9:53 PM 51.1 °F - 48.0 °F 89% 29.88 in 10.0 mi Variable 4.6 mph - 0.05 in Rain Light Rain
10:53 PM 53.1 °F - 51.1 °F 93% 29.86 in 6.0 mi SSE 8.1 mph - 0.01 in Rain Light Rain
11:01 PM 53.6 °F - 51.8 °F 94% 29.86 in 9.0 mi SSE 9.2 mph - 0.00 in Rain Light Rain
11:08 PM 53.6 °F - 51.8 °F 94% 29.87 in 7.0 mi South 8.1 mph - 0.01 in Rain Light Rain
11:11 PM 53.6 °F - 51.8 °F 94% 29.86 in 6.0 mi South 8.1 mph - 0.01 in Rain Light Rain
11:21 PM 53.6 °F - 51.8 °F 94% 29.85 in 4.0 mi South 12.7 mph 20.7 mph 0.04 in Rain Heavy Rain
11:39 PM 53.6 °F - 53.6 °F 100% 29.85 in 7.0 mi SSE 10.4 mph - 0.07 in Rain Light Rain
11:49 PM 55.4 °F - 53.6 °F 94% 29.84 in 7.0 mi SSE 13.8 mph 20.7 mph 0.07 in Rain Light Rain
11:53 PM 55.0 °F - 53.1 °F 93% 29.84 in 6.0 mi South 12.7 mph 20.7 mph 0.08 in Rain Rain